N7PDI-1 Weather Reports


time (UTC)temp
C
wind
direction
speed
KPH
gust
KPH
rain 1hr
cm
rain 24hr
cm
rain mn
cm
humidity
%
barometer
mb
20260505004129 11 287 1.6 11.3 0.00 0.00 0.00
20260504234759 17 298 9.7 24.1 0.00 0.00 0.00
20260504233436 17 257 8.0 20.9 0.00 0.00 0.00
20260504232113 18 249 11.3 22.5 0.00 0.00 0.00
20260504221407 18 253 4.8 19.3 0.00 0.00 0.00
20260504220044 18 314 6.4 12.9 0.00 0.00 0.00
20260504213358 18 291 4.8 25.7 0.00 0.00 0.00
20260504212035 18 291 8.0 17.7 0.00 0.00 0.00
20260504201340 16 318 6.4 11.3 0.00 0.00 0.00
20260504193329 17 308 9.7 22.5 0.00 0.00 0.00
20260504185315 16 323 8.0 20.9 0.00 0.00 0.00
20260504183953 16 316 6.4 17.7 0.00 0.00 0.00
20260504182630 16 330 4.8 12.9 0.00 0.00 0.00
20260504175945 13 304 4.8 14.5 0.00 0.00 0.00
20260504174710 16 259 3.2 11.3 0.00 0.00 0.00
20260504174622 16 259 3.2 11.3 0.00 0.00 0.00
20260504173259 16 345 6.4 12.9 0.00 0.00 0.00
20260504170609 17 284 0.0 11.3 0.00 0.00 0.00
20260504150541 11 215 0.0 0.0 0.00 0.00 0.00
20260504042919 5 278 0.0 0.0 0.00 0.00 0.00
20260504041557 5 278 0.0 0.0 0.00 0.00 0.00
20260504033548 6 278 0.0 0.0 0.00 0.00 0.00
20260504032225 6 278 0.0 0.0 0.00 0.00 0.00
20260504024214 8 278 0.0 0.0 0.00 0.00 0.00
20260504014844 13 300 0.0 4.8 0.00 0.00 0.00
20260504012158 13 252 1.6 12.9 0.00 0.00 0.00
20260504010835 15 166 4.8 8.0 0.00 0.00 0.00